Terug naar catalogus

FENGYUN 1C DEB

ActiefPO
NORAD 31498·DEBRIS·🇨🇳 China

Gelanceerd May 10, 1999 vanaf Taiyuan Satellite Launch Center

Loading…

Volgende Passages (komende 24 uur)

TLE

VersSource: Space-Track

Epoch: Sep 14, 2026, 07:10 UTC

1 31498U 99025BWM 26257.29927435  .00001326  00000-0  11355-2 0  9992
2 31498  98.4991 204.8504 0217805 119.5409 242.7652 13.78117292965281

Volg FENGYUN 1C DEB in realtime met AllMySat

Download on the App Store